RH
66 66 65 61 59 62 62 66 70 73 74 73 71 71 76 71 58 56 56 50 58 60 61 62 61 64 61 64 67 71 73 75 74
67 68 65 61 60 61 62 67 68 69 70 70 70 75 77 56 55 56 52 51 58 59 60 60 60 61 62 62 63 65 67 71 72
68 67 64 61 60 61 65 67 66 67 68 69 74 76 75 59 56 56 51 64 62 59 58 59 59 59 63 61 61 61 61 61 63
67 66 64 60 61 63 67 67 67 68 70 73 77 80 80 56 55 50 46 68 60 62 57 59 58 62 70 64 66 62 62 62 63
71 74 69 62 66 71 71 70 70 71 75 79 82 81 77 54 60 54 61 69 63 62 61 59 65 61 62 70 67 64 67 72 74
67 76 76 68 72 71 70 72 77 82 86 83 82 76 54 53 62 68 81 66 63 64 67 61 59 60 60 64 64 72 75 73 71
65 73 78 71 74 72 75 80 89 81 68 67 74 58 56 52 55 58 76 67 65 63 68 65 63 65 65 71 77 70 70 68 68
64 72 68 68 76 68 77 78 72 70 65 68 64 61 56 60 74 81 79 68 67 75 72 67 67 77 75 71 68 67 66 64 64
64 66 63 63 62 72 72 68 70 70 68 64 63 59 59 60 71 80 90 74 70 67 66 72 77 70 69 67 66 62 61 63 62
64 61 57 58 58 66 70 72 73 71 67 65 64 64 61 59 69 70 91 88 72 64 71 74 68 67 65 64 61 61 61 62 62
61 58 54 56 56 64 68 70 72 72 64 63 63 64 66 63 65 72 78 91 83 78 71 67 66 65 63 61 62 58 57 63 68
59 54 54 56 56 65 68 68 68 66 58 57 57 58 61 63 64 65 76 80 90 82 70 66 66 64 65 65 66 67 69 65 64
58 56 54 56 61 66 67 65 66 61 55 53 53 54 61 64 65 66 73 80 77 81 72 68 66 66 65 64 63 66 64 65 64
55 55 54 57 63 67 64 62 58 58 59 56 58 57 59 63 65 64 68 76 77 75 83 82 76 70 64 66 65 64 64 66 68
59 54 51 56 62 68 64 62 58 56 56 51 58 59 60 63 64 66 68 67 71 71 67 63 67 76 68 63 65 64 66 66 64
56 56 52 57 62 63 60 63 64 63 59 63 64 64 58 58 61 65 66 70 69 68 63 61 61 68 76 69 67 63 60 64 64
55 53 54 54 62 64 63 63 66 63 62 56 62 62 59 57 55 60 65 67 65 65 63 62 65 68 63 61 61 56 57 57 58
56 54 53 54 61 65 65 63 66 64 67 55 62 69 64 60 59 55 60 66 62 58 59 63 66 62 57 56 57 64 57 55 56
60 57 53 54 59 64 65 61 61 58 66 73 60 67 61 63 62 56 57 68 62 56 54 59 66 60 56 65 68 65 56 47 53
63 61 61 57 56 61 64 65 63 52 60 61 64 64 64 61 57 62 62 67 70 60 56 58 64 58 54 53 59 57 47 44 48
Wind_Speed
16 16 16 15 16 17 17 17 17 16 16 15 15 14 14 10 9 8 10 11 14 16 15 15 15 16 15 16 14 17 18 20 21
16 16 16 16 16 16 17 18 17 16 16 15 14 14 12 9 8 8 9 12 14 15 15 16 16 16 15 15 16 15 16 18 19
16 15 15 16 17 16 18 17 16 16 16 16 15 13 10 8 9 9 9 11 14 13 15 15 14 16 16 16 16 18 17 17 17
15 15 15 15 16 17 17 17 16 16 17 16 14 11 9 7 6 8 7 12 14 13 15 15 15 14 17 17 19 18 17 17 16
14 12 13 15 15 15 16 17 17 17 17 15 13 11 9 8 6 5 7 14 16 14 14 16 15 15 15 19 19 17 16 17 19
10 9 11 12 14 16 17 17 17 16 15 14 12 8 5 6 4 5 10 15 14 14 15 17 16 16 15 16 17 17 22 21 22
8 9 11 12 14 13 17 17 15 11 7 7 8 5 6 6 6 5 8 13 13 14 14 16 17 16 17 18 20 21 21 21 21
6 5 5 6 9 6 10 9 6 9 7 6 6 6 7 6 5 11 7 13 14 15 17 17 16 18 21 21 21 21 20 18 18
6 5 7 7 5 7 7 5 8 9 9 9 9 8 7 6 4 10 17 12 15 17 18 18 20 21 20 19 19 18 17 18 18
6 6 5 6 6 7 7 8 7 9 8 8 9 8 8 9 5 6 17 14 12 16 19 20 21 20 18 18 17 17 17 18 18
7 7 6 6 6 7 8 8 7 7 7 8 8 8 7 8 8 6 7 19 7 18 18 20 19 17 17 17 16 15 16 18 17
9 7 6 5 6 9 8 8 7 7 6 8 7 6 7 7 8 8 6 7 14 12 19 20 18 17 16 17 17 16 17 16 17
8 7 6 6 7 8 7 8 7 7 6 6 6 6 6 7 7 6 6 5 5 10 16 17 18 16 17 16 16 15 17 16 15
7 6 7 8 7 7 9 7 8 8 7 7 6 6 6 6 5 7 7 7 5 5 17 14 14 14 14 15 15 15 14 14 14
7 6 9 8 7 7 8 9 7 8 8 8 8 6 5 4 5 6 6 7 8 7 9 8 12 14 13 14 13 13 14 14 15
9 6 8 7 9 10 11 9 12 6 9 7 7 7 6 6 4 4 5 6 7 7 7 6 7 9 16 14 13 13 12 13 13
9 10 9 9 7 9 11 11 7 4 7 5 5 4 3 4 4 3 3 5 5 6 7 9 9 8 7 10 12 10 9 10 11
10 10 10 10 8 8 9 11 9 7 5 8 3 4 4 4 2 3 3 3 4 5 6 7 7 7 6 7 8 9 9 8 9
11 11 11 11 9 10 10 9 8 10 9 4 1 2 5 4 4 2 2 3 4 5 5 6 6 6 5 7 9 9 8 7 7
12 12 12 11 9 11 13 11 10 9 9 8 3 2 2 3 3 4 4 3 1 3 4 4 5 5 5 4 7 8 8 6 6
Wind_Direction
128 125 124 123 126 123 120 118 110 107 102 103 97 93 90 85 81 85 87 93 91 88 88 88 87 81 76 74 73 68 66 66 67
129 129 129 127 126 124 123 117 111 106 104 102 100 97 87 91 87 82 90 89 97 95 91 87 92 89 84 81 82 79 77 69 69
131 131 129 127 126 123 119 116 113 109 108 107 104 97 93 94 92 91 96 99 93 88 103 92 78 80 88 86 83 84 74 71 68
132 131 130 128 128 126 122 120 114 111 110 108 102 96 89 93 99 103 108 108 93 86 87 81 95 87 74 98 89 81 77 81 80
129 127 129 130 131 122 128 121 116 111 106 97 85 79 77 93 80 97 93 106 92 96 94 92 85 87 78 80 82 84 86 79 79
119 125 124 133 132 128 129 120 114 107 95 88 80 76 83 80 53 91 112 94 95 102 107 99 97 92 95 82 84 86 80 73 67
127 124 129 139 127 133 125 115 111 107 106 99 89 87 89 65 50 58 96 104 101 103 108 101 100 96 95 89 88 81 74 69 66
130 120 114 108 100 119 116 119 117 116 114 104 101 96 83 70 41 21 129 114 115 104 115 100 100 96 93 85 78 75 73 74 72
137 131 125 120 124 123 123 123 119 113 112 111 101 90 87 81 66 42 27 111 113 110 108 105 102 87 84 84 80 83 82 79 77
145 138 135 131 135 141 133 128 123 116 111 107 105 96 92 83 68 56 39 27 120 119 112 109 95 90 86 82 83 82 83 83 80
150 145 144 142 145 146 139 137 131 119 117 101 97 94 85 80 79 67 48 39 87 114 116 100 95 95 91 91 86 88 81 84 84
149 147 148 150 145 139 129 121 120 116 105 99 91 89 84 76 68 70 51 39 35 109 105 98 94 97 97 95 90 83 78 79 71
150 149 154 150 144 143 137 137 122 120 113 107 87 84 83 77 69 69 71 33 25 37 96 102 101 101 98 96 93 86 78 73 73
156 151 150 151 147 149 141 136 132 129 115 106 90 73 72 82 81 70 68 69 47 47 57 75 94 93 98 98 93 88 86 81 73
156 153 156 157 152 145 138 134 122 133 125 108 91 81 73 67 78 89 80 66 64 61 79 84 74 83 92 95 103 94 87 81 75
164 159 159 157 160 159 154 135 138 128 132 113 93 69 67 66 46 58 88 82 76 78 82 89 90 72 68 74 83 89 91 85 79
171 164 167 167 152 157 157 152 143 128 181 136 119 132 123 87 67 63 67 88 94 87 78 82 82 84 83 74 65 71 88 93 93
178 171 168 164 163 169 167 162 157 156 186 174 134 147 171 141 86 87 92 120 108 105 101 95 93 92 88 79 65 45 67 70 80
175 172 171 173 163 171 178 175 167 164 176 168 60 66 134 159 155 134 107 151 144 129 111 108 102 102 92 76 63 48 52 58 72
182 177 174 176 178 179 181 178 177 183 174 176 154 119 79 99 143 153 156 120 141 115 119 127 122 108 103 85 68 55 50 41 53